Regional Weather Roundup
Issued by NWS Newport/Morehead, NC

Current Version | Previous Version | Graphics & Text | Print | Product List | Glossary On
Versions: 1 2 3 4 5 6 7 8 9 10 11 12 13 14 15 16 17 18 19 20 21 22 23 24 25 26 27 28 29 30 31 32 33 34 35 36 37 38 39 40 41 42 43 44 45 46 47 48 49 50
143 ASUS42 KMHX 242225 RWRMHX WEATHER ROUNDUP FOR EASTERN NORTH CAROLINA NATIONAL WEATHER SERVICE NEWPORT/MOREHEAD CITY NC 500 PM EST TUE JAN 24 2017 NOTE: "FAIR" INDICATES FEW OR NO CLOUDS BELOW 12,000 FEET WITH NO SIGNIFICANT WEATHER AND/OR OBSTRUCTIONS TO VISIBILITY NCZ015>017-031-032-045>047-102-103-242300- NORTH COAST CITY SKY/WX TMP DP RH WIND PRES REMARKS EDENTON CLEAR 56 39 53 W6 29.60S ELIZABETH CITY CLEAR 52 38 58 W13 29.58R KITTY HAWK NOT AVBL MANTEO CLEAR 50 38 64 W8 29.59R $$ NCZ045>047-081-094-103-104-242300- CENTRAL COAST CITY SKY/WX TMP DP RH WIND PRES REMARKS FRISCO CLEAR 53 40 61 NW9 29.61R $$ NCZ095-097-098-100-101-242300- SOUTHERN COAST CITY SKY/WX TMP DP RH WIND PRES REMARKS BEAUFORT CLEAR 56 42 59 NW12 29.64R CEDAR ISLAND NOT AVBL JACKSONVILLE CLEAR 60 42 51 W10 29.64R PINEY ISLAND CLEAR N/A N/A N/A W12 29.63R WILMINGTON CLEAR 62 43 49 W13 29.67R $$ NCZ011>013-027>030-043-044-078>080-089-090>093-098-242300- COASTAL PLAIN CITY SKY/WX TMP DP RH WIND PRES REMARKS AHOSKIE N/A 55 38 51 W3 29.61R CLINTON CLEAR 62 43 49 W7G17 29.67R ELIZABETHTOWN CLEAR 63 40 43 W14G21 29.69R GOLDSBORO CLEAR 61 38 43 W10 29.63R GREENVILLE CLEAR 59 37 44 NW6 29.66R HAVELOCK PTCLDY 57 39 51 W9 29.64R KENANSVILLE CLEAR 61 41 48 NW6 29.66R KINSTON PTCLDY 61 39 44 W5 29.64R NEW BERN CLEAR 57 40 52 NW7 29.64R RICHLANDS PTCLDY 59 42 53 W6 29.65R ROCKY MOUNT CLEAR 59 39 47 NW9 29.64R WASHINGTON CLEAR 58 39 50 W6 N/A WHITEVILLE CLEAR 63 41 45 W5 29.69R $$ AMZ130-135-150-152-154-156-158-170-250-252-270-ANZ085-086-088-633-658-670-242300- MARINE OBSERVATIONS STATION/POSITION TIME TEMP WIND PRES WAVE SWELL AIR SEA DIR/SP/G HT/PER HT/PER (UTC) (F) (DEG/KT/KT) (MB) (FT/S) (FT/S) CHESAPEAKE LIGHT NOT AVBL 64 E VA BEACH 2150 49 54 300/ 25/ 31 998.9 11/ 6 5/11 DUCK 2200 52 46 280/ 12/ 17 1000.7 2 E DUCK 2200 47 N/A 5/12 3/12 OREGON INLET 2200 51 50 280/ 11/ 15 1001.5 13E OREGON INLT NOT AVBL HATTERAS CG 2200 53 55 290/ 14/ 15 1002.3 DIAMOND BUOY 2150 53 70 310/ 17/ 21 1002.3 8/12 5/12 CAPE LOOKOUT 2200 56 300/ 11/ 13 1003.4 BEAUFORT LAB 2200 56 52 300/ 6/ 11 1002.8 30 SE NEW RVR IN 2208 60 65 320/ 14/ 17 1004.5 30 SE NEW RVR IN 2143 65 N/A 5/13 2/13 27 SE WRIGHTSVLE 2208 63 67 300/ 17/ 23 1004.1 5 SE WRIGHTSVLE 2208 60 56 300/ 12/ 19 1004.7 225 S CAPE HAT 2150 66 70 310/ 27/ 33 1003.2 17/10 11/10 41 SE CHARLESTON 2150 64 68 260/ 19/ 21 1006.5 4/ 5 2/12 $$

USA.gov is the U.S. government's official web portal to all federal, state and local government web resources and services.